| time (UTC) | temp C | wind direction | speed KPH | gust KPH | rain 1hr cm | rain 24hr cm | rain mn cm | humidity % | barometer mb |
| 20260506035125 | 16 | 300 | 8.0 | 8.0 | 0.00 | 0.00 | 0.00 | 80 | 1007.2 |
| 20260506034622 | 16 | 18 | 3.2 | 3.2 | 0.00 | 0.00 | 0.00 | 80 | 1007.2 |
| 20260506034119 | 16 | 312 | 8.0 | 8.0 | 0.00 | 0.00 | 0.00 | 80 | 1007.2 |
| 20260506033616 | 17 | 318 | 3.2 | 3.2 | 0.00 | 0.00 | 0.00 | 80 | 1007.5 |
| 20260506033113 | 17 | 31 | 4.8 | 4.8 | 0.00 | 0.00 | 0.00 | 80 | 1007.5 |
| 20260506032606 | 17 | 312 | 3.2 | 3.2 | 0.00 | 0.00 | 0.00 | 80 | 1007.2 |
| 20260506032102 | 17 | 312 | 0.0 | 0.0 | 0.00 | 0.00 | 0.00 | 80 | 1007.2 |
| 20260506031600 | 17 | 318 | 3.2 | 3.2 | 0.00 | 0.00 | 0.00 | 80 | 1007.2 |
| 20260506031056 | 17 | 318 | 3.2 | 3.2 | 0.00 | 0.00 | 0.00 | 80 | 1007.2 |
| 20260506030555 | 17 | 314 | 4.8 | 4.8 | 0.00 | 0.00 | 0.00 | 80 | 1006.8 |
| 20260506030052 | 17 | 306 | 4.8 | 4.8 | 0.00 | 0.00 | 0.00 | 80 | 1006.8 |
| 20260506025549 | 17 | 279 | 3.2 | 3.2 | 0.00 | 0.00 | 0.00 | 80 | 1006.5 |
| 20260506025044 | 17 | 330 | 4.8 | 4.8 | 0.00 | 0.00 | 0.00 | 79 | 1006.5 |
| 20260506024541 | 18 | 319 | 4.8 | 6.4 | 0.00 | 0.00 | 0.00 | 79 | 1006.5 |
| 20260506024037 | 18 | 320 | 4.8 | 4.8 | 0.00 | 0.00 | 0.00 | 79 | 1006.5 |
| 20260506023533 | 18 | 306 | 4.8 | 6.4 | 0.00 | 0.00 | 0.00 | 79 | 1006.5 |
| 20260506023031 | 18 | 320 | 3.2 | 3.2 | 0.00 | 0.00 | 0.00 | 79 | 1005.7 |
| 20260506022528 | 18 | 309 | 6.4 | 6.4 | 0.00 | 0.00 | 0.00 | 78 | 1005.7 |
| 20260506022021 | 18 | 319 | 3.2 | 3.2 | 0.00 | 0.00 | 0.00 | 79 | 1005.4 |
| 20260506021518 | 19 | 349 | 0.0 | 0.0 | 0.00 | 0.00 | 0.00 | 79 | 1005.4 |
| 20260506021015 | 19 | 314 | 4.8 | 4.8 | 0.00 | 0.00 | 0.00 | 78 | 1005.4 |
| 20260506020513 | 19 | 0 | 0.0 | 0.0 | 0.00 | 0.00 | 0.00 | 78 | 1005.0 |
| 20260506020010 | 19 | 321 | 3.2 | 3.2 | 0.00 | 0.00 | 0.00 | 78 | 1005.4 |
| 20260506015507 | 19 | 25 | 3.2 | 3.2 | 0.00 | 0.00 | 0.00 | 78 | 1005.0 |
| 20260506015004 | 19 | 46 | 3.2 | 3.2 | 0.00 | 0.00 | 0.00 | 78 | 1005.0 |
| 20260506014502 | 19 | 67 | 6.4 | 6.4 | 0.00 | 0.00 | 0.00 | 78 | 1004.7 |
| 20260506013957 | 20 | 327 | 0.0 | 0.0 | 0.00 | 0.00 | 0.00 | 77 | 1004.7 |
| 20260506013455 | 20 | 327 | 0.0 | 0.0 | 0.00 | 0.00 | 0.00 | 77 | 1004.7 |
| 20260506012951 | 20 | 327 | 3.2 | 3.2 | 0.00 | 0.00 | 0.00 | 76 | 1004.4 |
| 20260506012448 | 20 | 268 | 0.0 | 0.0 | 0.00 | 0.00 | 0.00 | 75 | 1004.7 |
| 20260506011945 | 20 | 248 | 0.0 | 0.0 | 0.00 | 0.00 | 0.00 | 75 | 1004.4 |
| 20260506011442 | 20 | 248 | 3.2 | 3.2 | 0.00 | 0.00 | 0.00 | 74 | 1004.4 |
| 20260506010939 | 20 | 306 | 0.0 | 0.0 | 0.00 | 0.00 | 0.00 | 74 | 1004.0 |
| 20260506010438 | 20 | 319 | 6.4 | 6.4 | 0.00 | 0.00 | 0.00 | 74 | 1004.0 |
| 20260506005934 | 20 | 252 | 0.0 | 0.0 | 0.00 | 0.00 | 0.00 | 73 | 1004.0 |
| 20260506005432 | 20 | 306 | 3.2 | 3.2 | 0.00 | 0.00 | 0.00 | 73 | 1004.0 |
| 20260506004932 | 20 | 298 | 8.0 | 9.7 | 0.00 | 0.00 | 0.00 | 73 | 1003.7 |
| 20260506004430 | 20 | 320 | 4.8 | 4.8 | 0.00 | 0.00 | 0.00 | 73 | 1003.7 |
| 20260506003926 | 21 | 313 | 4.8 | 4.8 | 0.00 | 0.00 | 0.00 | 73 | 1003.4 |
| 20260506003423 | 21 | 324 | 6.4 | 8.0 | 0.00 | 0.00 | 0.00 | 73 | 1003.7 |
| 20260506002919 | 21 | 307 | 3.2 | 3.2 | 0.00 | 0.00 | 0.00 | 73 | 1003.0 |
| 20260506002415 | 21 | 37 | 6.4 | 6.4 | 0.00 | 0.00 | 0.00 | 72 | 1003.4 |
| 20260506001910 | 21 | 326 | 3.2 | 3.2 | 0.00 | 0.00 | 0.00 | 71 | 1003.4 |
| 20260506001408 | 22 | 318 | 3.2 | 3.2 | 0.00 | 0.00 | 0.00 | 70 | 1003.4 |
| 20260506000905 | 22 | 306 | 4.8 | 4.8 | 0.00 | 0.00 | 0.00 | 70 | 1003.7 |
| 20260506000403 | 22 | 302 | 6.4 | 6.4 | 0.00 | 0.00 | 0.00 | 70 | 1003.0 |
| 20260505235859 | 22 | 299 | 9.7 | 11.3 | 0.00 | 0.00 | 0.00 | 69 | 1003.4 |
| 20260505235357 | 22 | 50 | 6.4 | 6.4 | 0.00 | 0.00 | 0.00 | 69 | 1003.7 |
| 20260505234853 | 22 | 317 | 4.8 | 6.4 | 0.00 | 0.00 | 0.00 | 68 | 1003.0 |
| 20260505234351 | 23 | 314 | 3.2 | 3.2 | 0.00 | 0.00 | 0.00 | 67 | 1003.4 |
| 20260505233848 | 23 | 316 | 6.4 | 6.4 | 0.00 | 0.00 | 0.00 | 67 | 1003.4 |
| 20260505233346 | 23 | 261 | 6.4 | 6.4 | 0.00 | 0.00 | 0.00 | 67 | 1003.0 |
| 20260505232843 | 23 | 300 | 6.4 | 6.4 | 0.00 | 0.00 | 0.00 | 68 | 1003.0 |
| 20260505232341 | 23 | 301 | 9.7 | 9.7 | 0.00 | 0.00 | 0.00 | 67 | 1002.7 |
| 20260505231837 | 24 | 299 | 4.8 | 4.8 | 0.00 | 0.00 | 0.00 | 67 | 1002.7 |
| 20260505231335 | 24 | 308 | 3.2 | 3.2 | 0.00 | 0.00 | 0.00 | 66 | 1002.7 |
| 20260505230833 | 25 | 318 | 4.8 | 4.8 | 0.00 | 0.00 | 0.00 | 65 | 1002.7 |
| 20260505230330 | 25 | 240 | 8.0 | 9.7 | 0.00 | 0.00 | 0.00 | 63 | 1002.7 |
| 20260505225826 | 25 | 313 | 6.4 | 6.4 | 0.00 | 0.00 | 0.00 | 64 | 1002.7 |
| 20260505225324 | 25 | 318 | 3.2 | 3.2 | 0.00 | 0.00 | 0.00 | 64 | 1002.7 |
| 20260505224819 | 25 | 311 | 6.4 | 6.4 | 0.00 | 0.00 | 0.00 | 65 | 1002.7 |
| 20260505224317 | 25 | 314 | 3.2 | 3.2 | 0.00 | 0.00 | 0.00 | 64 | 1002.3 |
| 20260505223814 | 26 | 320 | 6.4 | 6.4 | 0.00 | 0.00 | 0.00 | 63 | 1002.3 |
| 20260505223311 | 26 | 306 | 4.8 | 6.4 | 0.00 | 0.00 | 0.00 | 62 | 1002.0 |
| 20260505222806 | 27 | 310 | 3.2 | 3.2 | 0.00 | 0.00 | 0.00 | 59 | 1002.0 |
| 20260505222305 | 27 | 268 | 0.0 | 0.0 | 0.00 | 0.00 | 0.00 | 58 | 1001.7 |
| 20260505221800 | 27 | 317 | 0.0 | 0.0 | 0.00 | 0.00 | 0.00 | 56 | 1001.7 |
| 20260505221256 | 28 | 328 | 3.2 | 3.2 | 0.00 | 0.00 | 0.00 | 55 | 1002.0 |
| 20260505220753 | 28 | 316 | 8.0 | 9.7 | 0.00 | 0.00 | 0.00 | 55 | 1002.0 |
| 20260505220251 | 29 | 324 | 6.4 | 6.4 | 0.00 | 0.00 | 0.00 | 53 | 1001.7 |
| 20260505215749 | 28 | 289 | 4.8 | 4.8 | 0.00 | 0.00 | 0.00 | 53 | 1001.7 |
| 20260505215246 | 28 | 318 | 8.0 | 8.0 | 0.00 | 0.00 | 0.00 | 51 | 1001.7 |
| 20260505214744 | 28 | 313 | 1.6 | 1.6 | 0.00 | 0.00 | 0.00 | 49 | 1001.7 |
| 20260505214242 | 28 | 254 | 4.8 | 6.4 | 0.00 | 0.00 | 0.00 | 48 | 1001.7 |
| 20260505213738 | 29 | 265 | 0.0 | 0.0 | 0.00 | 0.00 | 0.00 | 47 | 1001.7 |
| 20260505213236 | 29 | 306 | 0.0 | 0.0 | 0.00 | 0.00 | 0.00 | 45 | 1001.7 |
| 20260505212731 | 29 | 307 | 6.4 | 8.0 | 0.00 | 0.00 | 0.00 | 45 | 1001.7 |
| 20260505212229 | 29 | 320 | 0.0 | 0.0 | 0.00 | 0.00 | 0.00 | 44 | 1001.7 |
| 20260505211726 | 30 | 290 | 4.8 | 4.8 | 0.00 | 0.00 | 0.00 | 44 | 1001.7 |
| 20260505211224 | 30 | 312 | 6.4 | 6.4 | 0.00 | 0.00 | 0.00 | 44 | 1001.7 |
| 20260505210720 | 30 | 270 | 6.4 | 6.4 | 0.00 | 0.00 | 0.00 | 44 | 1001.7 |
| 20260505210217 | 30 | 295 | 3.2 | 3.2 | 0.00 | 0.00 | 0.00 | 46 | 1002.0 |
| 20260505205714 | 30 | 306 | 6.4 | 6.4 | 0.00 | 0.00 | 0.00 | 46 | 1002.0 |
| 20260505205213 | 30 | 225 | 9.7 | 9.7 | 0.00 | 0.00 | 0.00 | 50 | 1002.0 |
| 20260505204708 | 30 | 220 | 6.4 | 8.0 | 0.00 | 0.00 | 0.00 | 55 | 1002.0 |
| 20260505204206 | 29 | 252 | 0.0 | 0.0 | 0.00 | 0.00 | 0.00 | 57 | 1002.0 |
| 20260505203658 | 29 | 258 | 6.4 | 6.4 | 0.00 | 0.00 | 0.00 | 55 | 1002.0 |
| 20260505203154 | 29 | 259 | 0.0 | 0.0 | 0.00 | 0.00 | 0.00 | 56 | 1002.0 |
| 20260505202650 | 30 | 246 | 0.0 | 0.0 | 0.00 | 0.00 | 0.00 | 58 | 1002.0 |
| 20260505202147 | 29 | 220 | 0.0 | 0.0 | 0.00 | 0.00 | 0.00 | 57 | 1002.0 |
| 20260505201643 | 29 | 240 | 0.0 | 0.0 | 0.00 | 0.00 | 0.00 | 62 | 1002.3 |
| 20260505201141 | 28 | 244 | 0.0 | 0.0 | 0.00 | 0.00 | 0.00 | 58 | 1002.3 |
| 20260505200639 | 30 | 240 | 0.0 | 0.0 | 0.00 | 0.00 | 0.00 | 57 | 1002.3 |
| 20260505200136 | 29 | 149 | 0.0 | 0.0 | 0.00 | 0.00 | 0.00 | 59 | 1002.0 |
| 20260505195631 | 29 | 204 | 6.4 | 6.4 | 0.00 | 0.00 | 0.00 | 57 | 1002.0 |
| 20260505195128 | 30 | 252 | 0.0 | 0.0 | 0.00 | 0.00 | 0.00 | 59 | 1002.0 |
| 20260505194620 | 30 | 252 | 3.2 | 3.2 | 0.00 | 0.00 | 0.00 | 59 | 1002.0 |
| 20260505194116 | 30 | 214 | 8.0 | 8.0 | 0.00 | 0.00 | 0.00 | 58 | 1002.7 |
| 20260505193613 | 30 | 250 | 0.0 | 0.0 | 0.00 | 0.00 | 0.00 | 59 | 1002.7 |
| 20260505193110 | 29 | 234 | 3.2 | 3.2 | 0.00 | 0.00 | 0.00 | 59 | 1002.3 |
| 20260505192609 | 28 | 228 | 6.4 | 8.0 | 0.00 | 0.00 | 0.00 | 58 | 1002.3 |
| 20260505192106 | 29 | 254 | 0.0 | 0.0 | 0.00 | 0.00 | 0.00 | 62 | 1002.0 |
| 20260505191604 | 28 | 246 | 0.0 | 0.0 | 0.00 | 0.00 | 0.00 | 58 | 1002.3 |
| 20260505191102 | 28 | 108 | 0.0 | 0.0 | 0.00 | 0.00 | 0.00 | 57 | 1002.3 |
| 20260505190556 | 28 | 264 | 0.0 | 0.0 | 0.00 | 0.00 | 0.00 | 61 | 1002.3 |
| 20260505190052 | 29 | 260 | 0.0 | 0.0 | 0.00 | 0.00 | 0.00 | 61 | 1002.3 |
| 20260505185549 | 30 | 246 | 0.0 | 0.0 | 0.00 | 0.00 | 0.00 | 59 | 1002.0 |
| 20260505185046 | 29 | 244 | 0.0 | 0.0 | 0.00 | 0.00 | 0.00 | 60 | 1002.0 |
| 20260505184542 | 29 | 99 | 0.0 | 0.0 | 0.00 | 0.00 | 0.00 | 60 | 1002.3 |
| 20260505184039 | 30 | 164 | 0.0 | 0.0 | 0.00 | 0.00 | 0.00 | 59 | 1002.3 |
| 20260505183536 | 29 | 220 | 0.0 | 0.0 | 0.00 | 0.00 | 0.00 | 59 | 1002.3 |
| 20260505183033 | 29 | 85 | 0.0 | 0.0 | 0.00 | 0.00 | 0.00 | 62 | 1002.3 |
| 20260505182530 | 28 | 214 | 0.0 | 0.0 | 0.00 | 0.00 | 0.00 | 60 | 1002.0 |
| 20260505182026 | 28 | 228 | 0.0 | 0.0 | 0.00 | 0.00 | 0.00 | 61 | 1002.0 |
| 20260505181523 | 30 | 243 | 0.0 | 0.0 | 0.00 | 0.00 | 0.00 | 62 | 1002.3 |
| 20260505181021 | 29 | 240 | 0.0 | 0.0 | 0.00 | 0.00 | 0.00 | 61 | 1002.3 |
| 20260505180516 | 29 | 228 | 0.0 | 0.0 | 0.00 | 0.00 | 0.00 | 63 | 1002.3 |
| 20260505180015 | 29 | 213 | 0.0 | 0.0 | 0.00 | 0.00 | 0.00 | 64 | 1002.3 |
| 20260505175509 | 28 | 228 | 0.0 | 0.0 | 0.00 | 0.00 | 0.00 | 64 | 1002.3 |
| 20260505175006 | 28 | 216 | 3.2 | 3.2 | 0.00 | 0.00 | 0.00 | 64 | 1002.3 |
| 20260505174503 | 28 | 222 | 0.0 | 0.0 | 0.00 | 0.00 | 0.00 | 64 | 1002.3 |
| 20260505173959 | 28 | 258 | 0.0 | 0.0 | 0.00 | 0.00 | 0.00 | 67 | 1002.0 |
| 20260505173455 | 27 | 182 | 0.0 | 0.0 | 0.00 | 0.00 | 0.00 | 67 | 1002.3 |
| 20260505172953 | 27 | 227 | 0.0 | 0.0 | 0.00 | 0.00 | 0.00 | 67 | 1002.0 |
| 20260505172451 | 28 | 244 | 0.0 | 0.0 | 0.00 | 0.00 | 0.00 | 67 | 1002.3 |
| 20260505171950 | 27 | 228 | 0.0 | 0.0 | 0.00 | 0.00 | 0.00 | 67 | 1002.3 |
| 20260505171447 | 27 | 252 | 0.0 | 0.0 | 0.00 | 0.00 | 0.00 | 68 | 1002.3 |
| 20260505170944 | 27 | 204 | 0.0 | 0.0 | 0.00 | 0.00 | 0.00 | 69 | 1002.3 |
| 20260505170440 | 26 | 222 | 0.0 | 0.0 | 0.00 | 0.00 | 0.00 | 71 | 1002.3 |
| 20260505165935 | 26 | 226 | 0.0 | 0.0 | 0.00 | 0.00 | 0.00 | 70 | 1002.7 |
| 20260505165426 | 26 | 216 | 0.0 | 0.0 | 0.00 | 0.00 | 0.00 | 71 | 1002.3 |
| 20260505164921 | 26 | 204 | 0.0 | 0.0 | 0.00 | 0.00 | 0.00 | 71 | 1002.3 |
| 20260505164418 | 26 | 215 | 0.0 | 0.0 | 0.00 | 0.00 | 0.00 | 72 | 1002.3 |
| 20260505163916 | 26 | 120 | 0.0 | 0.0 | 0.00 | 0.00 | 0.00 | 72 | 1002.3 |
| 20260505163415 | 26 | 241 | 0.0 | 0.0 | 0.00 | 0.00 | 0.00 | 72 | 1002.7 |
| 20260505162914 | 26 | 239 | 4.8 | 6.4 | 0.00 | 0.00 | 0.00 | 72 | 1002.3 |
| 20260505162409 | 25 | 81 | 0.0 | 0.0 | 0.00 | 0.00 | 0.00 | 72 | 1002.3 |
| 20260505161907 | 25 | 260 | 0.0 | 0.0 | 0.00 | 0.00 | 0.00 | 72 | 1002.0 |
| 20260505161404 | 25 | 56 | 0.0 | 0.0 | 0.00 | 0.00 | 0.00 | 74 | 1002.3 |
| 20260505160901 | 25 | 252 | 0.0 | 0.0 | 0.00 | 0.00 | 0.00 | 73 | 1002.0 |
| 20260505160359 | 25 | 216 | 0.0 | 0.0 | 0.00 | 0.00 | 0.00 | 73 | 1002.0 |
| 20260505153337 | 26 | 204 | 0.0 | 0.0 | 0.00 | 0.00 | 0.00 | 71 | 1002.0 |
| 20260505152834 | 25 | 241 | 0.0 | 0.0 | 0.00 | 0.00 | 0.00 | 73 | 1002.0 |
| 20260505152331 | 25 | 86 | 0.0 | 0.0 | 0.00 | 0.00 | 0.00 | 73 | 1002.0 |
| 20260505151826 | 26 | 222 | 1.6 | 1.6 | 0.00 | 0.00 | 0.00 | 72 | 1002.0 |
| 20260505151323 | 25 | 222 | 0.0 | 0.0 | 0.00 | 0.00 | 0.00 | 74 | 1002.0 |
| 20260505150820 | 25 | 236 | 3.2 | 3.2 | 0.00 | 0.00 | 0.00 | 76 | 1002.0 |
| 20260505150317 | 25 | 215 | 0.0 | 0.0 | 0.00 | 0.00 | 0.00 | 77 | 1002.3 |
| 20260505140246 | 23 | 211 | 0.0 | 0.0 | 0.00 | 0.00 | 0.00 | 79 | 1001.7 |
| 20260505130210 | 22 | 220 | 0.0 | 0.0 | 0.00 | 0.00 | 0.00 | 86 | 1002.0 |
| 20260505124700 | 21 | 221 | 0.0 | 0.0 | 0.00 | 0.00 | 0.00 | 86 | 1001.7 |
| 20260505124157 | 21 | 336 | 0.0 | 0.0 | 0.00 | 0.00 | 0.00 | 87 | 1001.7 |
| 20260505123653 | 21 | 234 | 0.0 | 0.0 | 0.00 | 0.00 | 0.00 | 87 | 1001.3 |
| 20260505123150 | 21 | 270 | 0.0 | 0.0 | 0.00 | 0.00 | 0.00 | 87 | 1001.3 |
| 20260505122646 | 21 | 228 | 0.0 | 0.0 | 0.00 | 0.00 | 0.00 | 87 | 1001.0 |
| 20260505122143 | 21 | 78 | 0.0 | 0.0 | 0.00 | 0.00 | 0.00 | 88 | 1001.0 |
| 20260505121640 | 21 | 192 | 0.0 | 0.0 | 0.00 | 0.00 | 0.00 | 88 | 1001.0 |
| 20260505121137 | 21 | 216 | 3.2 | 3.2 | 0.00 | 0.00 | 0.00 | 88 | 1001.0 |
| 20260505120633 | 21 | 218 | 0.0 | 0.0 | 0.00 | 0.00 | 0.00 | 87 | 1001.3 |
| 20260505120129 | 21 | 270 | 0.0 | 0.0 | 0.00 | 0.00 | 0.00 | 87 | 1001.3 |
| 20260505115623 | 21 | 228 | 0.0 | 0.0 | 0.00 | 0.00 | 0.00 | 87 | 1001.0 |
| 20260505115121 | 21 | 212 | 0.0 | 0.0 | 0.00 | 0.00 | 0.00 | 87 | 1001.0 |
| 20260505114618 | 21 | 229 | 3.2 | 3.2 | 0.00 | 0.00 | 0.00 | 88 | 1001.0 |
| 20260505114114 | 21 | 98 | 0.0 | 0.0 | 0.00 | 0.00 | 0.00 | 88 | 1001.0 |
| 20260505113611 | 21 | 258 | 0.0 | 0.0 | 0.00 | 0.00 | 0.00 | 87 | 1001.0 |
| 20260505113107 | 21 | 221 | 3.2 | 3.2 | 0.00 | 0.00 | 0.00 | 87 | 1001.0 |
| 20260505112603 | 21 | 19 | 0.0 | 0.0 | 0.00 | 0.00 | 0.00 | 87 | 1000.6 |
| 20260505112102 | 21 | 19 | 0.0 | 0.0 | 0.00 | 0.00 | 0.00 | 87 | 1000.6 |
| 20260505111556 | 21 | 22 | 0.0 | 0.0 | 0.00 | 0.00 | 0.00 | 87 | 1000.6 |
| 20260505111052 | 21 | 281 | 0.0 | 0.0 | 0.00 | 0.00 | 0.00 | 87 | 1001.0 |
| 20260505110549 | 21 | 209 | 0.0 | 0.0 | 0.00 | 0.00 | 0.00 | 87 | 1001.0 |
| 20260505102021 | 21 | 252 | 0.0 | 0.0 | 0.00 | 0.00 | 0.00 | 86 | 1001.0 |
| 20260505101519 | 21 | 193 | 0.0 | 0.0 | 0.00 | 0.00 | 0.00 | 85 | 1001.0 |
| 20260505101015 | 21 | 222 | 0.0 | 0.0 | 0.00 | 0.00 | 0.00 | 85 | 1001.0 |
| 20260505100512 | 22 | 228 | 3.2 | 3.2 | 0.00 | 0.00 | 0.00 | 85 | 1001.0 |
| 20260505100009 | 22 | 210 | 4.8 | 4.8 | 0.00 | 0.00 | 0.00 | 85 | 1001.0 |
| 20260505095505 | 22 | 211 | 6.4 | 6.4 | 0.00 | 0.00 | 0.00 | 84 | 1000.2 |
| 20260505095001 | 22 | 68 | 3.2 | 3.2 | 0.00 | 0.00 | 0.00 | 84 | 1000.6 |
| 20260505094458 | 22 | 240 | 0.0 | 0.0 | 0.00 | 0.00 | 0.00 | 84 | 1000.6 |
| 20260505093954 | 22 | 222 | 0.0 | 0.0 | 0.00 | 0.00 | 0.00 | 84 | 1001.0 |
| 20260505093451 | 22 | 242 | 0.0 | 0.0 | 0.00 | 0.00 | 0.00 | 84 | 1001.0 |
| 20260505092948 | 22 | 217 | 0.0 | 0.0 | 0.00 | 0.00 | 0.00 | 84 | 1001.0 |
| 20260505092446 | 22 | 252 | 0.0 | 0.0 | 0.00 | 0.00 | 0.00 | 83 | 1001.0 |
| 20260505091943 | 22 | 206 | 0.0 | 0.0 | 0.00 | 0.00 | 0.00 | 83 | 1000.6 |
| 20260505091441 | 22 | 198 | 3.2 | 3.2 | 0.00 | 0.00 | 0.00 | 83 | 1001.3 |
| 20260505090939 | 22 | 212 | 3.2 | 3.2 | 0.00 | 0.00 | 0.00 | 83 | 1001.3 |
| 20260505090437 | 22 | 208 | 4.8 | 6.4 | 0.00 | 0.00 | 0.00 | 83 | 1001.3 |
| 20260505085933 | 22 | 161 | 0.0 | 0.0 | 0.00 | 0.00 | 0.00 | 83 | 1001.3 |
| 20260505085431 | 22 | 242 | 4.8 | 4.8 | 0.00 | 0.00 | 0.00 | 83 | 1001.0 |
| 20260505084930 | 22 | 234 | 0.0 | 0.0 | 0.00 | 0.00 | 0.00 | 82 | 1001.3 |
| 20260505084427 | 22 | 204 | 0.0 | 0.0 | 0.00 | 0.00 | 0.00 | 82 | 1001.3 |
| 20260505083925 | 22 | 227 | 1.6 | 1.6 | 0.00 | 0.00 | 0.00 | 82 | 1001.3 |
| 20260505083422 | 22 | 215 | 0.0 | 0.0 | 0.00 | 0.00 | 0.00 | 81 | 1001.3 |
| 20260505082918 | 22 | 231 | 1.6 | 1.6 | 0.00 | 0.00 | 0.00 | 81 | 1001.3 |
| 20260505082414 | 22 | 234 | 0.0 | 0.0 | 0.00 | 0.00 | 0.00 | 81 | 1001.7 |
| 20260505081912 | 22 | 198 | 1.6 | 1.6 | 0.00 | 0.00 | 0.00 | 81 | 1001.3 |
| 20260505081408 | 22 | 204 | 4.8 | 4.8 | 0.00 | 0.00 | 0.00 | 81 | 1001.7 |
| 20260505080905 | 22 | 283 | 0.0 | 0.0 | 0.00 | 0.00 | 0.00 | 80 | 1001.3 |
| 20260505080401 | 22 | 191 | 3.2 | 3.2 | 0.00 | 0.00 | 0.00 | 80 | 1001.7 |
| 20260505075856 | 22 | 114 | 0.0 | 0.0 | 0.00 | 0.00 | 0.00 | 80 | 1001.7 |
| 20260505075353 | 22 | 222 | 0.0 | 0.0 | 0.00 | 0.00 | 0.00 | 80 | 1001.7 |
| 20260505074851 | 22 | 222 | 0.0 | 0.0 | 0.00 | 0.00 | 0.00 | 79 | 1001.7 |
| 20260505074348 | 22 | 196 | 0.0 | 0.0 | 0.00 | 0.00 | 0.00 | 79 | 1001.7 |
| 20260505073845 | 22 | 248 | 0.0 | 0.0 | 0.00 | 0.00 | 0.00 | 78 | 1002.0 |
| 20260505073343 | 22 | 229 | 0.0 | 0.0 | 0.00 | 0.00 | 0.00 | 78 | 1002.0 |
| 20260505072840 | 22 | 330 | 3.2 | 3.2 | 0.00 | 0.00 | 0.00 | 78 | 1002.0 |
| 20260505072336 | 22 | 234 | 0.0 | 0.0 | 0.00 | 0.00 | 0.00 | 77 | 1002.0 |
| 20260505071832 | 23 | 242 | 0.0 | 0.0 | 0.00 | 0.00 | 0.00 | 77 | 1002.3 |
| 20260505071328 | 23 | 235 | 1.6 | 1.6 | 0.00 | 0.00 | 0.00 | 76 | 1002.3 |
| 20260505070827 | 23 | 202 | 4.8 | 4.8 | 0.00 | 0.00 | 0.00 | 76 | 1002.3 |
| 20260505070323 | 23 | 264 | 0.0 | 0.0 | 0.00 | 0.00 | 0.00 | 76 | 1002.3 |
| 20260505065818 | 23 | 223 | 3.2 | 3.2 | 0.00 | 0.00 | 0.00 | 75 | 1002.3 |
| 20260505065315 | 23 | 224 | 3.2 | 3.2 | 0.00 | 0.00 | 0.00 | 75 | 1002.3 |
| 20260505064812 | 23 | 264 | 3.2 | 3.2 | 0.00 | 0.00 | 0.00 | 74 | 1002.7 |
| 20260505064309 | 23 | 225 | 3.2 | 3.2 | 0.00 | 0.00 | 0.00 | 74 | 1002.7 |
| 20260505063808 | 23 | 235 | 1.6 | 1.6 | 0.00 | 0.00 | 0.00 | 74 | 1003.0 |
| 20260505063303 | 23 | 206 | 0.0 | 0.0 | 0.00 | 0.00 | 0.00 | 74 | 1002.7 |
| 20260505062800 | 23 | 185 | 0.0 | 0.0 | 0.00 | 0.00 | 0.00 | 73 | 1002.7 |
| 20260505062258 | 23 | 242 | 0.0 | 0.0 | 0.00 | 0.00 | 0.00 | 73 | 1002.7 |
| 20260505061754 | 23 | 234 | 0.0 | 0.0 | 0.00 | 0.00 | 0.00 | 72 | 1002.7 |
| 20260505061252 | 23 | 241 | 6.4 | 6.4 | 0.00 | 0.00 | 0.00 | 72 | 1003.0 |
| 20260505060749 | 23 | 234 | 3.2 | 3.2 | 0.00 | 0.00 | 0.00 | 73 | 1003.0 |
| 20260505060246 | 23 | 220 | 0.0 | 0.0 | 0.00 | 0.00 | 0.00 | 73 | 1002.7 |
| 20260505055741 | 23 | 203 | 0.0 | 0.0 | 0.00 | 0.00 | 0.00 | 74 | 1002.7 |
| 20260505055238 | 23 | 240 | 0.0 | 0.0 | 0.00 | 0.00 | 0.00 | 73 | 1002.7 |
| 20260505054735 | 23 | 236 | 4.8 | 4.8 | 0.00 | 0.00 | 0.00 | 74 | 1002.7 |
| 20260505054228 | 23 | 241 | 0.0 | 0.0 | 0.00 | 0.00 | 0.00 | 73 | 1002.7 |
| 20260505053726 | 23 | 275 | 3.2 | 3.2 | 0.00 | 0.00 | 0.00 | 73 | 1002.7 |
| 20260505053222 | 23 | 222 | 0.0 | 0.0 | 0.00 | 0.00 | 0.00 | 73 | 1002.7 |
| 20260505052720 | 23 | 222 | 0.0 | 0.0 | 0.00 | 0.00 | 0.00 | 73 | 1002.3 |
| 20260505052216 | 23 | 264 | 4.8 | 4.8 | 0.00 | 0.00 | 0.00 | 73 | 1002.7 |
| 20260505051713 | 23 | 210 | 3.2 | 3.2 | 0.00 | 0.00 | 0.00 | 73 | 1002.7 |
| 20260505051211 | 23 | 324 | 3.2 | 3.2 | 0.00 | 0.00 | 0.00 | 72 | 1003.0 |
| 20260505050703 | 23 | 252 | 3.2 | 3.2 | 0.00 | 0.00 | 0.00 | 73 | 1002.7 |
| 20260505050201 | 23 | 222 | 4.8 | 4.8 | 0.00 | 0.00 | 0.00 | 72 | 1003.0 |
| 20260505041630 | 23 | 258 | 3.2 | 3.2 | 0.00 | 0.00 | 0.00 | 72 | 1003.0 |
| 20260505041128 | 23 | 248 | 3.2 | 3.2 | 0.00 | 0.00 | 0.00 | 72 | 1003.0 |
| 20260505040624 | 23 | 212 | 4.8 | 6.4 | 0.00 | 0.00 | 0.00 | 72 | 1003.4 |
| 20260505040122 | 23 | 203 | 4.8 | 6.4 | 0.00 | 0.00 | 0.00 | 72 | 1003.0 |
| 20260505035618 | 23 | 213 | 3.2 | 3.2 | 0.00 | 0.00 | 0.00 | 72 | 1003.0 |